Regional Weather Roundup
Issued by NWS

Home | Current Version | Previous Version | Text Only | Print | Product List | Glossary On
Versions: 1 2 3 4 5 6 7 8 9 10 11 12 13 14 15 16 17 18 19 20 21 22 23 24 25 26 27 28 29 30 31 32 33 34 35 36 37 38 39 40 41 42 43 44 45 46 47 48 49 50
882
ASUS43 KLMK 270410
RWRKY
KENTUCKY REGIONAL WEATHER ROUNDUP
NATIONAL WEATHER SERVICE LOUISVILLE KY
1200 AM EDT SAT AUG 27 2016

NOTE "FAIR" INDICATES FEW OR NO CLOUDS BELOW 12,000 FEET
WITH NO SIGNIFICANT WEATHER AND/OR OBSTRUCTIONS TO VISIBILITY.

KYZ001>023-026-027-061>063-070>075-270500-
WESTERN AND SOUTH CENTRAL KENTUCKY

CITY           SKY/WX    TMP DP  RH WIND       PRES   REMARKS
PADUCAH        RAIN      71  69  93 N5        30.11F FOG
HENDERSON      CLOUDY    75  70  83 SW3       30.07S
OWENSBORO      CLOUDY    79  76  90 CALM      30.08S
HOPKINSVILLE   TSTM      73  70  88 SE9       30.16R FOG
BOWLING GREEN  CLOUDY    79  75  87 CALM      30.10R
GLASGOW        PTCLDY    75  75 100 CALM      30.11R
$$

KYZ024-025-028>034-038-045-046-053-270500-
NORTH CENTRAL KENTUCKY

CITY           SKY/WX    TMP DP  RH WIND       PRES   REMARKS
LOUISVILLE/SDF CLOUDY    83  69  62 N6        30.08F
LOUISVILLE/LOU CLOUDY    80  70  71 NW5       30.10S
FORT KNOX      CLOUDY    74  71  92 N1        30.09S
$$

KYZ035>037-039>044-047>052-055>060-089>105-270500-
NORTHEAST KENTUCKY

CITY           SKY/WX    TMP DP  RH WIND       PRES   REMARKS
LEXINGTON      PTCLDY    76  71  85 CALM      30.12F
COVINGTON      CLOUDY    76  71  85 N3        30.12F
FRANKFORT      CLOUDY    77  71  82 CALM      30.10S
$$

KYZ054-064>069-076>088-106>120-270500-
SOUTHEAST KENTUCKY

CITY           SKY/WX    TMP DP  RH WIND       PRES   REMARKS
JACKSON        CLEAR     78  70  76 CALM      30.15F
LONDON         CLEAR     74  69  85 CALM      30.13F
SOMERSET       PTCLDY    77  68  73 CALM      30.12S
MIDDLESBORO    PTCLDY    73  72  95 CALM      30.15S
MONTICELLO     MOCLDY   N/A N/A N/A VRB7      30.13S
$$





USA.gov is the U.S. government's official web portal to all federal, state and local government web resources and services.